Wind_Speed
33 35 36 34 33 33 30 28 29 30 29 25 21 19 18 19 20 19 16 14 14 14 16 16 15 17 16 16 16 15 15 16 16 15 15 13 13 14 14 14 15 15 14 13 13 11 9 9 10 9 9 8 8 8 9 12 14 14 13 12 11 12 11 12 15 16 16 17 17 18 20 20 21 22 23 23 23 23 24 25 25 25 24 22 22 21
33 35 33 31 31 31 31 31 33 33 30 28 26 23 19 17 19 20 19 16 15 16 17 17 15 17 18 18 18 17 16 16 16 15 15 15 14 14 14 14 14 15 14 14 13 12 10 9 10 10 9 8 8 8 8 10 12 14 13 12 12 11 12 13 15 16 16 16 17 18 19 21 22 24 24 24 24 24 25 24 24 24 23 22 22 21
32 31 29 29 32 33 33 35 35 34 32 30 29 26 21 18 19 20 20 18 16 17 18 17 16 16 18 19 18 18 17 16 16 16 17 16 14 14 14 13 13 14 15 14 13 13 11 10 10 10 10 9 9 8 8 9 11 13 13 13 12 11 12 14 16 17 17 16 17 18 19 21 23 25 26 25 25 25 24 23 23 24 22 21 21 20
28 26 26 30 33 34 35 37 36 35 34 32 30 27 24 22 21 19 19 19 16 16 19 19 18 18 19 20 18 17 17 17 17 17 18 18 16 16 15 14 14 14 15 15 14 14 12 10 11 11 11 10 9 8 8 8 9 11 12 12 12 12 12 15 17 18 18 18 18 19 19 21 23 25 26 26 25 24 23 22 22 23 23 21 20 19
25 26 29 33 34 34 35 37 37 36 35 33 30 27 25 25 24 21 19 18 16 15 18 21 22 21 21 20 19 17 16 18 19 19 19 19 19 18 17 15 14 14 15 16 15 15 14 12 12 11 11 12 10 8 8 8 8 9 11 11 11 11 12 16 19 19 19 19 20 21 22 23 24 26 27 27 25 23 22 21 21 22 22 21 20 20
27 30 33 33 34 33 34 36 36 36 35 33 29 27 27 27 25 23 20 18 17 16 16 21 24 23 22 22 21 19 17 17 19 20 20 20 19 18 17 16 15 14 14 15 15 15 15 13 12 12 12 12 11 9 8 8 7 8 10 11 11 11 12 15 20 21 21 20 21 23 24 25 26 27 28 27 25 22 20 20 20 21 21 21 20 20
30 32 32 32 33 33 33 34 33 34 35 33 29 28 28 26 23 23 22 19 18 16 14 18 23 26 26 24 23 22 20 17 17 18 19 19 19 18 18 17 16 14 14 15 15 13 14 14 13 13 13 12 12 10 9 8 8 8 9 11 12 11 12 15 19 21 22 22 21 23 24 26 26 27 27 26 24 21 20 19 19 19 19 19 19 19
32 33 32 31 32 33 34 34 33 34 33 30 28 29 27 23 20 22 23 21 20 16 11 12 19 27 28 25 25 25 23 20 17 16 17 19 19 18 18 18 17 16 14 15 15 14 14 14 14 13 13 12 12 11 10 9 8 8 9 11 13 12 13 16 20 21 22 24 24 24 24 25 25 25 25 24 23 21 20 18 18 18 18 18 17 17
33 32 31 31 30 32 33 33 33 33 30 27 28 30 28 25 24 25 25 24 21 16 11 8 12 22 28 28 28 29 26 22 18 15 15 17 19 19 18 18 18 18 16 16 16 15 15 15 15 14 13 13 13 12 11 10 10 9 9 10 13 13 14 18 21 21 22 24 25 25 25 25 25 24 23 22 22 21 20 19 18 18 18 18 17 16
33 33 33 32 31 31 30 31 33 32 29 29 31 31 30 28 27 26 27 26 22 16 12 9 8 15 24 29 31 30 25 20 17 16 15 16 19 21 19 18 19 19 18 18 18 17 16 16 15 14 14 14 14 13 12 11 11 10 9 10 12 14 15 18 21 22 22 24 25 26 26 25 25 24 22 21 20 20 20 19 19 18 18 17 16 15
32 33 33 32 31 30 30 32 34 32 30 32 34 33 32 29 27 26 26 25 21 16 13 11 9 11 19 27 30 26 20 16 18 19 18 16 18 21 22 20 19 20 20 19 19 17 16 15 15 14 14 15 15 14 13 12 12 11 10 10 11 14 15 18 21 23 23 24 25 26 26 25 25 23 21 20 19 18 18 18 18 18 17 16 15 13
31 32 32 30 30 31 33 36 35 32 31 33 34 33 32 30 29 27 23 20 19 17 14 12 12 11 14 20 24 24 22 20 21 22 20 17 16 19 23 22 20 21 22 22 21 19 16 14 13 13 14 15 15 15 14 13 13 12 12 11 11 13 15 17 20 23 24 24 25 26 26 25 24 22 20 19 18 17 17 17 16 15 15 14 13 12
31 31 31 30 32 33 35 38 37 36 34 34 34 34 33 31 29 24 20 19 19 18 16 15 13 12 12 16 20 23 25 23 22 23 22 20 17 18 23 25 23 22 23 23 22 20 17 14 14 14 15 16 16 15 15 14 14 13 13 12 12 13 14 16 19 22 24 25 26 27 27 26 24 22 20 18 17 16 16 15 14 13 12 12 11 10
30 31 31 32 34 37 38 39 38 38 36 33 32 31 31 30 27 21 18 18 18 17 17 16 14 12 11 14 18 21 23 22 22 23 22 20 18 17 21 26 26 23 24 25 24 21 18 16 16 15 16 17 16 16 16 16 15 14 14 13 13 14 14 16 18 21 24 25 26 27 27 27 25 23 21 19 17 16 15 14 13 12 11 11 10 9
29 29 30 32 36 38 38 36 33 33 33 31 29 29 28 27 24 20 16 15 16 17 17 17 15 14 11 12 16 18 19 20 19 20 20 19 18 17 18 24 28 25 24 26 25 23 21 19 18 17 17 18 17 17 17 17 16 16 15 14 14 14 15 16 17 19 22 24 26 27 27 27 25 24 22 20 18 17 15 14 13 13 12 11 11 10
30 29 31 33 36 37 37 35 32 31 32 31 29 28 28 27 24 22 18 15 16 17 18 18 16 15 12 11 15 17 17 18 18 19 18 17 17 16 14 19 27 27 25 25 25 24 23 22 20 19 19 19 18 18 18 18 18 17 16 15 15 15 14 15 17 18 20 23 25 26 26 26 25 23 22 20 19 17 16 14 13 12 12 11 11 10
28 29 34 34 32 33 35 33 32 32 31 31 30 27 26 27 26 24 22 18 16 17 19 19 16 15 13 10 12 16 15 16 17 18 18 17 17 16 13 15 23 27 25 25 25 24 24 23 22 20 21 20 19 19 19 19 20 19 18 16 15 15 15 15 15 17 19 21 23 24 25 25 25 24 22 20 19 17 16 15 14 13 12 11 10 9
28 29 34 32 26 28 34 34 33 33 30 27 28 27 25 27 27 26 25 21 18 19 19 18 17 15 12 9 9 13 13 13 14 15 16 16 15 15 14 15 20 26 27 26 26 25 25 25 24 23 22 21 21 21 20 20 20 20 19 18 16 16 16 16 16 16 17 19 21 22 24 24 24 24 22 21 19 17 16 15 14 13 12 11 10 9
29 29 31 30 26 28 32 31 30 33 32 28 26 28 28 28 29 28 26 22 18 18 18 17 17 15 12 11 9 10 11 12 13 13 13 14 14 14 15 16 17 22 27 28 27 26 26 26 25 25 24 23 23 22 21 20 20 21 20 19 18 17 16 15 15 16 16 17 19 21 22 23 23 24 23 22 20 19 17 16 15 14 13 12 11 10
27 27 28 27 27 29 29 26 24 26 31 30 28 29 29 29 29 27 24 21 18 17 17 16 15 14 12 11 10 9 9 10 11 12 13 13 13 14 16 17 17 18 23 28 29 27 25 26 27 27 26 24 24 24 23 21 20 21 22 21 19 18 16 16 15 15 16 16 17 19 21 22 23 23 23 22 21 20 19 18 17 16 15 14 13 12
27 27 29 28 27 29 29 28 25 24 29 30 28 28 28 28 28 26 24 23 21 19 19 17 14 14 13 11 10 9 9 10 10 12 14 15 15 15 16 17 17 18 21 27 31 29 26 26 27 28 27 26 26 25 24 22 21 22 23 22 21 20 18 18 17 17 16 16 17 17 18 20 22 22 22 22 21 21 20 19 19 18 17 16 16 15
30 30 31 30 29 27 26 28 27 27 30 31 28 26 26 26 26 25 24 24 22 21 21 19 15 14 13 12 10 9 8 9 10 10 13 15 16 17 17 16 16 19 21 25 31 32 28 27 28 28 27 26 26 26 24 23 23 22 23 22 22 22 21 19 19 18 17 17 17 17 17 18 19 20 20 21 21 21 20 20 20 19 19 18 16 15
32 33 32 30 29 26 23 23 25 30 34 32 28 26 27 26 25 24 22 22 21 21 21 21 18 15 14 13 11 9 8 8 9 10 11 14 16 17 17 17 17 18 20 24 30 34 31 29 30 29 28 27 25 25 25 24 23 23 23 23 23 23 23 22 21 19 18 17 17 17 17 16 17 17 18 19 19 19 19 19 19 18 18 16 12 12
31 32 32 30 29 26 22 20 22 30 35 33 30 29 31 29 26 24 22 22 22 20 20 21 19 17 16 14 12 11 9 8 8 9 10 13 15 16 17 18 18 18 20 22 28 34 34 32 31 30 29 28 27 26 26 26 25 25 24 24 23 24 24 23 22 21 19 19 18 16 16 16 16 16 16 16 17 17 17 18 17 14 14 12 10 13
33 32 33 31 28 26 25 21 20 26 34 35 34 34 34 32 29 26 24 24 23 21 21 20 19 20 18 16 15 13 11 10 8 8 9 11 14 15 16 17 16 17 20 23 25 31 35 33 32 31 30 30 29 28 26 26 26 26 25 25 25 25 24 24 24 23 22 20 19 18 17 16 16 16 16 16 15 15 16 15 13 11 12 12 12 14
35 32 32 31 29 29 29 24 19 24 33 38 37 36 34 32 31 28 26 25 22 21 21 19 18 20 20 19 17 15 13 12 10 8 9 10 12 14 14 15 14 16 24 28 26 29 34 34 33 33 32 31 30 29 27 26 26 26 26 27 27 25 24 25 25 24 24 22 21 20 19 17 17 16 16 16 15 15 15 13 12 12 12 12 12 13
34 33 33 34 31 31 31 27 23 25 32 36 38 37 34 31 31 30 27 25 22 20 19 18 18 18 20 21 20 18 16 13 12 11 10 9 11 13 12 11 12 14 22 30 30 30 34 36 36 35 33 33 31 29 30 31 29 28 27 27 28 28 26 25 26 25 24 23 22 21 20 19 19 18 17 17 17 16 15 13 13 14 13 13 14 15
30 31 34 35 31 29 28 26 25 27 30 34 36 35 34 32 31 30 28 25 23 21 17 16 16 16 18 22 22 19 17 14 12 12 12 10 10 12 12 11 11 12 15 21 25 28 33 36 37 35 34 34 33 31 31 33 31 28 27 27 28 29 28 27 26 25 24 24 23 22 22 21 21 20 20 20 20 19 17 16 16 16 16 16 17 17
26 26 30 33 32 29 28 27 27 30 32 34 34 34 34 33 32 31 29 27 25 22 18 16 16 17 19 21 22 21 18 14 11 11 12 12 9 9 10 11 11 11 11 14 17 20 25 29 33 35 35 35 35 34 33 32 31 29 28 28 28 28 29 28 26 25 24 24 24 23 23 23 23 23 23 22 22 21 20 20 20 19 19 19 19 18
26 27 29 31 32 31 31 29 29 32 34 35 35 35 35 35 34 33 32 30 27 24 21 19 19 20 21 21 21 21 19 15 12 10 11 12 10 7 7 8 10 10 10 11 12 14 16 19 25 32 36 36 35 35 36 34 32 31 30 29 28 27 28 29 28 26 25 25 25 25 25 25 24 24 24 23 23 22 22 23 22 21 21 22 21 21
28 29 31 31 32 33 33 32 31 33 35 35 36 37 37 36 35 35 34 32 29 27 25 22 21 22 23 21 21 21 20 18 15 12 10 10 10 9 7 7 9 10 10 10 10 11 13 15 17 21 30 37 37 35 37 35 32 31 30 29 28 28 27 29 29 28 27 26 26 25 25 26 26 25 25 25 24 23 23 24 24 23 23 23 23 23
30 32 33 34 33 35 36 35 33 34 36 37 37 37 38 37 37 36 36 34 32 29 28 26 25 24 23 22 22 21 20 20 18 15 12 10 9 9 9 9 9 9 10 10 11 11 11 14 17 17 21 32 39 36 34 34 32 32 32 32 32 31 30 30 30 29 29 28 26 26 26 26 27 27 26 25 25 25 26 26 26 26 26 26 25 24
30 33 35 35 34 36 39 38 36 36 36 38 39 40 40 39 38 38 39 38 35 33 30 27 26 25 23 23 23 23 22 21 20 18 17 14 11 10 9 9 8 7 8 10 11 12 10 11 16 18 19 26 35 36 33 33 32 32 34 36 35 33 32 32 31 30 30 29 27 27 27 26 27 28 28 27 27 27 28 28 28 28 28 28 27 26
28 31 34 35 34 36 40 39 37 37 37 37 39 40 41 41 40 41 41 40 38 34 30 27 26 25 25 25 25 25 25 23 22 21 19 18 16 14 12 10 9 8 8 10 10 11 11 9 11 17 20 22 26 30 31 29 28 29 33 35 35 32 31 31 30 28 30 30 28 27 28 28 28 28 28 28 29 29 29 29 29 29 29 29 29 28
23 26 30 32 32 34 38 40 39 38 38 38 37 38 38 38 38 40 40 39 37 33 29 28 28 27 27 26 25 26 25 24 23 22 20 19 18 17 15 14 12 11 12 13 12 10 11 11 10 13 16 17 19 24 26 26 26 27 31 34 35 33 32 32 29 27 30 31 29 28 28 28 27 27 27 28 28 28 28 29 29 29 29 30 30 30
20 22 24 27 29 31 34 37 39 39 39 38 37 35 34 35 36 38 35 33 33 32 29 29 29 28 28 28 27 27 27 26 25 23 21 21 20 19 18 16 15 15 15 13 11 12 13 14 13 12 13 14 15 18 21 24 25 27 30 35 36 34 33 32 30 29 31 34 33 30 28 25 24 25 27 28 28 28 28 29 31 30 29 29 30 30
19 19 21 23 26 28 31 33 36 37 39 39 38 35 34 34 36 38 36 31 29 29 30 31 30 28 29 28 27 27 26 26 26 26 25 23 21 20 19 19 18 18 17 13 11 13 15 13 13 14 14 14 15 16 19 21 22 23 27 34 34 31 31 33 31 31 33 36 37 35 32 27 24 24 27 29 29 30 30 30 31 31 30 30 30 31
19 19 19 20 22 26 28 31 33 35 36 38 38 36 34 34 36 37 37 35 31 30 32 33 32 31 30 28 26 24 23 23 24 27 27 26 25 23 23 23 22 21 19 16 14 16 15 10 10 14 17 16 17 18 20 21 21 20 23 30 31 29 28 30 31 33 34 36 38 38 36 32 28 27 28 29 30 32 32 32 32 32 32 32 30 29
20 20 19 19 20 22 25 28 31 33 35 36 38 37 35 35 36 36 36 36 34 33 34 35 36 34 31 29 28 26 24 22 23 25 27 27 27 27 25 25 24 23 21 20 18 18 17 12 12 16 17 16 16 16 17 20 19 17 19 24 27 27 25 25 26 27 28 32 36 38 38 36 33 32 32 32 32 33 33 34 33 33 33 33 32 29
22 21 20 20 20 20 22 24 27 30 33 36 38 38 37 36 37 37 36 35 34 34 36 37 39 39 36 32 30 29 27 24 22 22 22 23 24 25 25 25 25 24 23 22 20 19 18 16 16 17 17 15 14 15 15 15 15 14 15 18 20 20 20 22 22 21 21 25 29 33 35 35 35 35 35 35 35 34 35 36 37 36 36 38 37 34
24 23 21 20 20 21 21 22 24 26 30 34 38 41 40 38 38 38 37 36 35 34 35 36 38 39 39 36 32 29 27 25 25 25 23 22 22 22 23 24 24 25 24 23 22 20 19 18 18 18 17 16 17 17 18 18 17 16 16 16 15 16 18 20 20 19 19 20 23 26 28 29 30 31 31 32 31 31 30 31 31 32 35 39 42 41
24 24 22 21 21 21 21 21 22 24 27 31 36 41 43 42 41 40 39 39 38 35 33 34 34 35 36 35 32 28 25 23 24 27 28 27 25 25 25 25 25 26 26 25 24 23 21 20 19 19 18 18 18 19 20 20 20 20 21 19 17 18 21 21 19 18 19 20 22 23 24 25 24 25 26 26 25 26 25 24 23 24 25 27 30 34
24 24 23 22 21 21 21 21 20 21 23 26 31 36 41 44 45 44 43 42 41 39 35 33 31 31 33 34 31 28 25 24 24 25 26 27 28 28 28 28 28 29 29 28 27 26 24 23 22 22 22 21 21 21 21 22 22 22 24 24 21 22 24 23 21 21 22 22 23 24 25 24 24 25 26 24 24 26 25 21 20 21 21 19 19 22
22 23 24 23 22 21 21 21 19 19 20 22 26 30 35 40 44 46 46 45 45 44 42 39 34 31 30 32 31 29 27 26 27 28 28 28 29 30 30 30 31 32 32 31 30 29 28 27 26 26 25 25 25 24 24 25 26 25 26 26 25 26 26 24 23 25 26 26 26 26 26 25 25 26 26 24 26 28 25 21 20 23 24 24 22 22
19 21 23 24 23 21 20 20 19 19 19 20 23 26 29 33 37 40 43 44 44 44 45 45 42 38 34 32 32 31 30 28 27 28 29 30 31 32 33 33 34 34 34 34 33 31 31 30 30 30 29 29 28 28 28 28 28 29 29 28 28 28 28 27 26 27 27 27 28 28 27 26 27 27 28 28 28 29 27 25 25 26 25 24 22 20
14 16 18 21 21 20 19 18 18 18 18 19 21 23 25 27 30 31 33 35 36 37 38 40 42 41 39 37 35 34 33 32 30 29 29 31 32 33 33 35 36 36 35 34 35 34 33 32 32 32 32 31 31 31 31 31 31 31 32 32 32 31 31 30 30 29 28 28 29 30 30 30 30 31 32 31 30 29 28 27 26 24 24 23 21 19
11 13 14 16 17 17 17 17 16 17 18 19 20 22 23 24 26 26 26 26 26 26 27 29 31 33 35 36 36 35 34 33 32 31 29 28 28 28 30 34 37 37 34 32 32 33 33 33 33 33 33 33 33 33 33 34 34 34 34 34 35 34 34 34 34 33 32 31 31 32 33 33 32 31 31 30 30 29 28 27 25 24 24 23 22 22
9 11 13 13 14 14 15 16 16 16 17 18 20 22 23 24 25 26 26 25 23 22 21 21 22 23 25 27 28 29 30 31 31 31 29 27 24 22 23 29 35 36 33 30 29 30 31 32 33 33 34 34 34 35 35 35 35 35 35 35 35 35 35 36 36 36 36 34 33 33 33 33 31 30 30 29 29 29 28 28 26 25 24 23 23 23
6 9 12 12 12 13 14 14 15 16 17 17 19 21 22 23 24 25 26 26 25 24 22 21 19 19 20 20 21 23 24 26 28 28 28 28 26 22 19 23 30 33 33 31 29 29 29 30 31 32 33 34 35 35 36 36 36 36 35 35 35 35 35 35 36 36 36 36 36 34 33 33 32 31 30 30 29 28 28 27 26 24 23 23 23 23
5 7 10 11 11 11 11 12 13 14 15 16 18 19 21 22 23 23 23 24 24 24 23 22 20 18 17 18 19 19 19 20 23 25 25 26 26 23 20 22 25 29 31 31 30 30 29 29 30 31 33 35 36 37 38 39 39 39 38 38 37 36 35 35 35 34 34 35 35 33 31 32 32 31 30 30 28 27 27 27 26 25 25 24 25 25
6 6 7 9 10 10 10 11 11 12 14 16 17 19 20 21 22 22 22 22 22 22 22 21 20 17 16 15 16 17 17 17 18 20 22 24 24 24 25 26 27 29 30 30 29 29 29 30 30 31 32 34 35 36 37 39 40 40 41 40 40 39 38 36 35 34 33 34 35 34 34 34 33 30 29 29 29 28 28 27 27 27 27 27 27 27
Wind_Direction
221 221 221 218 216 215 212 211 216 218 215 212 212 219 224 225 226 220 212 213 218 218 219 226 218 202 202 201 195 193 192 195 193 179 176 181 174 170 173 167 165 178 186 177 171 173 171 154 137 128 124 122 115 107 111 122 130 129 125 123 119 113 108 109 114 114 115 121 125 126 127 130 132 132 132 131 129 129 129 127 125 123 120 121 123 124
219 221 220 217 215 213 208 209 216 218 216 215 217 222 225 224 225 221 214 213 219 220 219 226 226 211 202 202 200 197 195 197 195 184 181 187 183 176 176 170 166 176 185 181 171 171 175 160 143 138 136 133 124 113 111 120 129 133 131 128 125 120 114 114 119 118 118 123 125 126 128 129 131 132 132 132 133 132 131 129 130 129 125 121 122 124
219 219 219 216 214 209 203 207 213 216 216 217 219 222 224 224 226 225 218 214 217 220 222 226 230 222 208 203 204 203 196 194 197 190 183 190 192 183 179 173 167 174 183 184 174 170 176 167 155 151 145 140 133 124 118 118 127 136 139 136 132 128 120 122 126 123 122 125 126 128 129 129 129 131 131 131 132 133 132 130 133 137 136 127 122 123
218 216 215 215 215 209 203 205 209 213 215 216 218 221 222 223 224 225 221 219 220 222 225 229 229 223 213 207 210 210 198 189 194 194 186 190 196 189 183 176 171 177 184 187 180 172 174 173 168 162 151 146 143 134 123 117 123 136 143 142 136 130 125 129 133 129 127 128 128 129 130 129 130 131 133 134 134 133 133 132 133 140 144 139 129 125
210 208 209 212 213 209 205 205 206 209 213 214 216 220 222 223 221 220 219 220 222 222 225 230 230 223 216 211 212 215 206 192 192 196 191 191 198 195 188 180 174 181 187 189 188 178 174 177 176 169 156 150 148 140 127 119 123 135 144 146 140 131 127 134 138 134 132 133 133 133 133 133 132 133 136 139 140 138 135 134 134 137 143 143 136 130
202 204 206 208 210 208 206 206 206 207 210 211 212 216 220 223 223 219 219 220 221 225 230 234 232 225 218 214 212 213 214 205 198 199 197 193 197 196 192 186 176 182 193 194 196 187 176 178 179 173 164 155 151 146 135 128 129 136 144 148 143 133 127 135 140 138 137 138 138 138 137 137 136 135 136 138 140 139 137 135 134 135 138 139 137 134
199 202 204 206 209 207 203 203 205 205 207 207 207 211 217 221 224 224 223 221 220 225 232 234 229 223 218 216 214 214 214 213 205 202 203 199 199 195 193 192 180 179 193 199 204 196 180 181 182 178 172 160 153 151 147 142 140 141 146 148 145 137 131 139 145 143 142 141 141 141 140 139 138 136 136 135 135 136 136 135 134 135 136 137 135 133
199 199 199 202 206 206 200 198 202 203 202 202 204 208 212 213 215 222 225 221 222 225 225 224 222 219 217 214 215 216 215 215 209 204 207 205 204 200 194 194 185 179 190 199 204 201 186 186 187 182 178 168 158 159 158 152 149 147 150 151 149 143 138 144 149 148 146 145 145 146 144 143 142 141 139 138 137 138 138 138 137 138 140 141 140 137
199 195 193 197 202 205 200 195 200 203 197 196 202 206 208 208 209 217 221 219 222 225 218 215 221 218 215 213 213 215 215 215 213 212 213 207 207 206 198 195 188 182 189 199 203 202 191 189 191 186 182 175 166 166 165 159 155 152 153 155 154 150 144 147 152 152 150 149 149 149 149 148 148 146 145 143 142 142 143 144 144 145 147 148 148 147
197 191 189 192 196 201 199 195 202 203 193 192 200 205 207 209 211 217 220 219 222 224 217 217 225 217 213 213 215 214 214 216 218 220 219 211 208 207 202 198 191 184 190 201 205 204 197 191 193 191 187 181 172 171 171 165 161 157 155 157 158 155 150 150 154 155 155 153 152 153 153 153 153 151 150 149 147 147 148 149 149 150 152 152 151 150
192 191 190 188 189 194 192 190 198 201 195 195 199 202 206 208 211 215 219 220 222 221 217 215 220 218 213 215 218 216 213 217 221 222 221 215 209 206 204 202 195 187 190 203 208 207 203 196 195 195 191 185 177 175 176 171 167 163 159 159 160 161 157 156 158 158 158 158 157 156 157 157 157 156 155 154 153 152 152 152 152 152 152 151 149 146
187 189 188 185 186 187 183 185 192 197 198 199 198 201 205 209 211 212 213 215 218 220 221 216 215 219 217 215 215 211 209 213 216 216 218 217 211 206 205 206 200 189 190 202 209 208 205 199 197 199 196 190 183 179 179 177 174 170 165 162 163 165 164 162 162 162 162 162 161 161 160 161 161 161 160 159 158 156 155 154 154 153 152 150 148 144
185 185 183 183 184 181 178 182 190 194 197 197 196 198 204 210 213 212 211 214 215 219 223 219 215 216 215 208 205 206 210 213 213 211 213 212 208 205 204 206 205 194 190 200 209 209 202 198 200 202 200 196 189 183 183 182 180 177 172 167 166 169 169 168 168 167 166 165 166 166 165 165 166 166 166 164 162 160 159 158 156 155 153 150 149 147
185 184 181 180 181 180 180 182 187 192 195 196 195 196 202 208 212 214 217 216 215 218 221 220 216 213 209 201 199 204 209 210 211 211 211 208 206 207 207 207 207 199 192 199 208 208 201 198 203 203 202 202 196 189 188 186 184 183 179 174 170 171 172 173 174 173 171 170 170 171 170 171 171 172 171 169 168 166 164 163 161 161 161 158 157 157
183 183 180 178 179 182 183 184 186 189 192 195 195 197 203 208 209 211 215 216 218 221 219 219 218 212 207 201 201 205 206 208 211 211 209 206 206 210 210 210 210 203 194 198 205 206 201 199 204 205 205 205 202 197 193 191 189 186 185 183 177 174 175 177 178 178 177 175 175 175 176 177 177 178 176 174 173 171 170 169 167 167 168 167 166 167
179 177 175 175 176 181 184 186 188 188 191 196 197 194 199 205 208 209 208 207 214 219 216 215 216 213 211 210 209 208 206 207 209 210 209 209 211 218 217 211 210 205 196 196 202 204 202 201 205 208 208 207 206 203 199 196 194 191 189 189 184 179 178 179 181 182 182 181 181 181 181 182 183 184 183 181 180 178 175 175 175 174 174 173 173 175
176 173 174 172 174 183 188 189 190 191 193 199 200 191 192 202 207 208 205 202 206 210 209 208 210 212 216 221 215 209 207 208 210 213 213 213 216 223 222 213 209 205 199 197 200 202 202 202 204 210 211 207 208 209 206 202 200 196 192 192 190 186 183 183 183 184 186 187 187 187 188 188 188 189 191 190 188 186 184 183 182 183 183 184 185 189
173 173 177 175 177 189 192 190 191 195 196 198 197 190 193 203 205 204 203 202 203 201 199 201 204 209 218 227 214 200 203 211 216 219 217 215 217 218 213 210 208 205 201 200 200 201 201 199 202 209 212 208 208 212 210 207 204 200 196 195 194 192 190 188 188 187 188 190 192 193 193 195 195 195 197 198 198 197 195 194 195 195 196 198 202 209
171 172 179 180 184 193 195 193 194 199 201 196 191 191 199 207 207 206 206 205 205 200 196 199 202 207 217 227 219 201 203 212 218 222 221 219 222 220 216 213 210 208 205 202 203 203 199 195 197 205 211 209 209 213 213 210 209 205 200 197 197 198 196 195 194 193 192 193 195 197 198 200 202 203 203 204 205 205 206 207 209 210 211 214 220 228
171 173 176 179 186 191 197 200 200 208 209 199 192 195 203 209 209 211 211 211 213 212 206 204 206 210 217 226 229 223 223 227 229 229 227 226 224 223 224 221 215 213 211 207 206 206 200 196 196 201 208 210 209 212 213 212 213 211 205 200 199 200 199 200 202 200 199 198 199 201 202 203 206 208 210 211 212 214 215 216 219 222 225 227 232 237
172 174 174 177 181 184 195 202 204 217 216 204 198 199 205 212 213 215 218 219 223 225 221 213 211 215 216 221 228 231 236 241 242 239 234 231 229 228 229 227 221 218 217 213 209 206 201 198 200 203 206 208 209 209 210 211 214 215 210 204 202 203 202 203 204 204 204 203 203 204 206 208 209 211 214 216 218 220 222 224 227 230 232 235 237 239
172 170 172 176 176 178 192 199 204 217 217 207 202 204 211 216 218 220 223 227 230 233 231 224 219 219 216 216 220 224 234 241 242 242 236 231 232 234 236 236 231 226 222 218 211 207 202 198 201 207 210 210 211 209 208 211 214 215 213 209 206 206 208 209 208 207 207 207 207 208 210 212 213 214 216 219 221 224 227 229 233 235 238 240 242 246
174 170 174 176 174 177 183 189 201 213 212 204 198 203 212 215 220 223 222 228 232 234 236 231 222 220 219 215 214 216 226 239 244 243 238 234 232 237 241 241 240 236 229 222 213 206 203 199 199 205 211 214 215 212 209 209 213 215 215 213 212 211 212 213 213 212 211 211 212 212 214 217 218 219 220 220 222 224 227 231 234 237 242 247 251 252
179 175 180 179 176 179 181 185 202 210 207 200 193 200 209 211 217 222 222 227 229 227 232 230 220 216 216 214 212 213 219 229 240 244 241 240 236 237 242 242 242 239 227 220 214 208 205 203 201 204 210 214 216 217 212 207 209 214 216 215 216 216 216 217 217 216 215 215 216 217 219 221 223 224 225 225 225 225 226 230 231 234 237 239 242 238
187 182 183 182 180 183 186 191 203 207 205 200 195 200 208 211 215 219 220 224 223 220 223 223 217 213 212 212 211 213 220 223 230 239 241 243 241 239 242 241 241 235 217 207 208 208 208 208 206 206 210 212 214 217 217 212 209 211 214 216 218 219 219 219 220 221 221 219 219 220 222 224 226 228 229 230 230 229 231 232 228 226 223 222 227 228
192 187 183 183 186 189 189 190 198 203 203 202 201 204 209 212 215 215 214 215 213 213 216 216 215 213 212 214 214 215 225 228 228 232 237 242 241 237 237 235 234 230 215 205 203 206 209 212 213 212 211 212 213 215 216 215 214 213 213 215 218 219 219 220 220 221 223 223 223 223 225 226 229 231 233 235 235 234 236 236 228 224 222 219 223 224
192 188 186 188 192 191 188 188 193 199 202 205 206 205 206 209 212 211 209 208 207 209 211 210 210 211 213 215 214 217 225 232 233 233 237 245 242 234 227 221 219 219 213 208 209 212 214 215 218 218 215 212 212 214 213 211 213 215 216 217 219 218 219 219 219 220 223 225 226 226 226 227 229 232 234 237 238 237 237 236 230 226 225 222 221 223
196 194 193 192 190 187 187 189 194 199 203 206 205 202 203 206 209 210 209 209 210 210 210 211 207 207 213 214 212 216 224 233 238 237 238 243 243 234 224 214 209 206 205 207 212 220 225 224 222 221 220 217 214 215 215 213 212 216 216 217 220 220 220 220 220 221 223 225 228 229 229 229 229 230 233 235 237 238 235 234 231 226 224 225 224 222
205 206 204 192 184 185 188 192 199 202 205 208 206 202 202 205 207 209 212 214 215 213 214 216 210 208 215 213 211 215 220 227 234 235 236 237 237 232 223 216 211 204 200 204 210 220 231 233 229 226 224 222 219 218 218 216 216 218 217 215 217 220 223 222 221 222 224 226 228 229 230 232 231 230 232 234 236 237 236 236 234 229 227 229 229 226
214 219 214 196 186 188 191 194 201 205 207 209 210 206 204 205 206 209 214 218 220 219 221 224 219 215 216 212 210 215 218 220 222 222 225 227 223 219 213 210 209 206 205 210 215 220 227 232 233 230 228 227 225 219 216 217 220 221 219 216 214 216 224 227 223 221 224 226 227 227 228 230 232 233 235 236 237 238 239 241 240 236 232 232 231 230
219 224 222 208 194 191 193 197 201 207 209 211 212 210 206 205 208 212 217 220 222 224 228 230 227 223 219 214 211 214 217 218 219 216 214 213 209 207 201 192 190 190 192 198 207 215 223 228 233 235 233 228 224 219 217 221 224 220 217 217 212 209 220 231 229 224 224 227 229 230 231 233 234 235 237 239 240 240 240 243 244 242 240 238 237 236
223 227 228 221 208 197 195 198 202 206 209 212 214 213 209 207 209 216 221 222 224 230 235 235 231 228 225 219 214 215 218 219 219 219 217 213 204 197 196 194 191 188 189 195 201 208 220 226 229 239 239 226 220 219 221 225 226 221 219 222 221 216 220 230 233 229 226 227 229 231 233 236 238 238 237 239 243 244 243 244 245 246 246 245 244 243
224 228 230 228 221 207 198 199 203 205 208 211 214 216 215 214 215 220 225 227 229 234 236 234 232 231 230 226 219 216 218 220 220 221 222 223 221 213 205 202 201 199 203 210 213 216 222 223 220 229 237 226 218 218 223 228 232 231 229 229 230 228 226 226 228 231 230 228 228 230 230 233 238 240 239 238 240 242 243 244 246 247 249 250 250 249
224 227 229 230 229 218 205 201 203 204 205 210 214 217 219 221 222 224 228 230 232 232 229 227 228 228 229 229 224 218 217 218 219 221 223 224 224 223 221 217 214 216 223 225 221 221 228 231 223 223 225 224 220 221 225 228 231 236 235 231 229 229 225 220 220 227 234 232 230 235 236 234 237 242 243 242 240 240 241 243 246 249 251 252 254 254
228 230 233 233 234 229 215 205 202 203 205 208 212 214 217 219 221 223 225 227 226 222 220 222 224 224 225 227 226 222 219 218 218 218 221 225 225 222 221 222 224 229 236 237 236 238 239 237 235 227 222 222 223 225 227 224 227 238 239 229 224 224 223 221 218 224 236 237 233 236 236 235 240 243 243 244 243 242 243 244 244 245 248 252 254 255
228 232 238 239 238 237 228 215 206 204 207 208 210 212 213 214 215 215 217 221 220 214 214 220 224 226 227 226 226 225 224 222 221 218 218 221 224 224 223 222 224 227 236 241 239 242 243 235 231 230 225 223 226 227 228 229 236 246 239 225 222 224 223 222 219 222 233 237 234 232 230 233 242 244 241 242 243 243 246 248 244 242 243 247 251 254
229 229 236 241 242 241 238 230 217 209 207 208 209 211 211 212 214 213 213 218 219 215 216 219 222 226 229 228 228 228 226 225 226 224 221 219 220 222 223 222 222 223 228 232 224 229 240 238 232 236 234 229 229 229 229 232 240 244 234 223 223 226 225 226 225 228 237 238 234 233 234 239 245 246 245 245 243 244 249 250 247 243 242 243 247 250
234 230 232 239 241 241 242 240 232 222 214 209 209 210 210 211 215 217 217 220 222 220 222 224 224 226 230 231 232 233 230 229 230 229 225 219 216 216 219 222 223 223 225 225 219 224 236 234 222 233 239 235 231 229 228 232 236 236 229 224 225 228 231 235 239 243 246 242 236 236 240 244 244 244 244 244 243 247 253 253 249 245 244 243 241 243
238 234 231 234 236 237 239 242 240 234 227 220 215 213 212 213 216 219 221 222 224 224 225 227 228 229 232 234 236 239 238 235 234 232 228 222 217 214 215 220 223 223 224 225 223 225 231 226 212 222 235 238 231 225 224 228 231 229 223 223 225 228 232 237 243 245 244 239 235 237 241 244 244 242 244 247 250 252 255 255 252 249 247 246 242 242
238 236 232 231 232 231 233 238 240 238 235 230 226 222 217 215 216 218 221 224 226 227 228 230 231 232 235 238 240 243 243 239 234 231 230 228 224 219 217 219 223 224 224 226 228 229 230 228 221 222 230 232 225 218 217 224 229 229 225 222 223 228 233 237 238 236 233 233 235 239 242 245 245 244 247 251 255 255 255 256 257 255 253 250 247 248
235 236 233 231 232 230 229 233 237 237 235 233 232 228 224 220 219 219 221 224 226 230 233 236 236 235 237 239 241 244 245 242 235 230 231 232 229 226 223 222 223 227 229 230 232 233 232 230 228 228 231 230 227 226 227 231 234 235 233 230 229 232 237 239 236 232 231 235 237 239 241 242 243 245 248 251 254 257 257 258 260 260 258 255 252 251
231 235 233 230 231 231 230 231 235 237 236 234 233 231 228 226 224 223 224 224 225 229 235 238 238 238 237 238 240 242 244 244 240 235 233 233 232 230 231 229 227 229 231 233 236 239 240 238 235 235 235 233 232 233 234 237 239 237 235 237 242 243 243 243 243 242 240 240 241 242 242 243 246 248 249 249 253 257 259 259 260 259 259 258 254 250
233 237 237 233 230 229 229 231 233 238 239 236 235 234 231 228 227 227 227 226 227 232 237 238 238 240 240 239 241 242 243 247 247 243 239 237 234 233 235 236 236 235 234 233 235 239 244 246 243 241 240 237 236 235 234 236 241 242 240 241 244 247 248 248 249 249 247 244 245 246 247 250 252 252 250 251 255 259 260 258 257 255 257 264 267 259
236 238 240 238 234 231 231 233 234 236 237 236 236 236 234 231 230 231 232 233 234 238 241 240 239 242 243 241 241 241 243 247 248 248 246 243 239 237 237 239 240 240 238 237 236 237 240 244 246 245 245 243 242 241 240 238 240 243 245 244 243 245 249 250 249 249 249 249 250 251 252 251 247 245 248 254 259 262 264 263 260 260 264 272 275 269
237 237 238 240 238 235 233 234 234 235 235 235 235 236 235 233 232 234 236 239 240 242 244 244 245 246 245 242 241 243 245 249 250 250 250 250 247 242 240 241 241 241 240 239 239 239 240 242 245 246 247 247 247 247 247 246 246 247 249 250 248 248 251 253 252 250 250 250 252 253 252 250 247 250 257 264 266 266 266 265 262 262 265 268 270 265
237 235 236 238 238 236 233 232 233 235 235 235 235 235 234 232 231 233 236 239 242 243 244 246 248 248 247 245 246 248 251 252 253 252 253 256 252 245 242 241 239 237 238 238 239 240 241 243 245 246 247 249 249 249 249 250 250 251 251 252 253 252 252 253 253 253 252 251 252 254 256 256 258 262 266 268 268 266 264 261 260 259 260 260 259 255
231 230 231 234 234 233 232 229 229 231 233 232 232 233 233 230 229 229 231 234 237 240 242 245 247 248 247 247 249 251 252 252 252 252 255 259 254 246 242 240 234 231 233 235 236 237 239 241 243 245 246 248 249 250 251 251 252 253 253 253 254 254 254 254 255 256 257 256 256 257 259 260 262 263 263 263 263 262 260 258 256 256 255 254 253 252
225 221 221 223 223 222 223 223 223 227 230 230 230 230 230 230 229 228 230 231 234 238 242 245 248 249 248 247 247 247 248 248 248 250 253 256 255 250 244 237 230 227 229 232 233 236 239 240 242 243 245 247 248 249 251 252 253 253 254 255 255 255 255 255 255 257 258 259 259 259 260 260 260 259 259 259 259 258 257 257 257 255 253 252 252 253
223 216 212 212 210 211 214 216 219 223 225 226 228 229 229 229 228 228 230 232 234 237 240 243 246 248 248 247 245 243 241 241 243 246 247 248 250 252 247 235 228 227 229 230 232 235 237 238 240 242 243 246 249 250 252 253 253 254 255 255 255 255 254 253 253 254 255 256 258 260 262 263 260 258 256 255 254 254 254 255 255 255 255 254 254 254
215 211 210 211 211 213 216 219 223 226 227 226 226 228 228 228 227 227 228 230 232 234 236 239 242 245 246 245 244 242 239 236 237 240 242 243 246 247 244 237 232 230 230 231 233 235 236 237 239 240 243 246 248 250 252 253 254 254 255 255 256 257 256 255 254 252 251 252 253 254 258 260 260 258 257 255 252 252 252 252 253 253 254 255 257 258
211 205 205 211 216 219 220 223 226 229 229 227 226 226 227 226 225 226 226 227 229 231 233 236 238 239 241 242 241 240 238 234 232 234 238 242 243 242 240 239 238 235 234 234 236 239 241 242 243 243 244 246 247 249 251 252 253 254 254 255 256 257 257 257 256 254 251 250 248 246 247 251 254 254 254 254 254 255 255 254 253 252 252 255 259 261
Height
5846 5847 5850 5854 5858 5863 5868 5871 5872 5872 5874 5876 5877 5878 5879 5880 5881 5882 5884 5885 5885 5886 5886 5887 5888 5889 5890 5891 5892 5893 5894 5895 5896 5897 5899 5901 5903 5905 5906 5908 5909 5909 5909 5911 5912 5912 5913 5913 5913 5913 5914 5915 5916 5916 5917 5917 5918 5918 5918 5918 5918 5919 5919 5919 5919 5919 5919 5919 5920 5920 5921 5922 5924 5925 5926 5927 5928 5929 5930 5931 5932 5932 5933 5933 5933 5934
5843 5845 5849 5854 5858 5862 5866 5868 5868 5869 5872 5875 5876 5877 5878 5879 5879 5880 5882 5883 5884 5884 5885 5885 5886 5888 5889 5890 5891 5892 5894 5895 5895 5897 5899 5900 5902 5904 5906 5908 5909 5910 5910 5911 5912 5912 5913 5913 5913 5913 5914 5915 5916 5916 5917 5918 5918 5919 5919 5919 5919 5920 5920 5920 5920 5920 5920 5921 5921 5922 5922 5924 5925 5927 5928 5929 5930 5931 5932 5933 5934 5934 5935 5935 5935 5936
5841 5846 5850 5853 5855 5859 5862 5863 5864 5868 5871 5872 5874 5875 5877 5878 5878 5878 5880 5882 5883 5883 5884 5885 5886 5886 5887 5889 5890 5891 5893 5895 5895 5896 5898 5900 5901 5904 5906 5907 5909 5910 5910 5911 5912 5913 5913 5913 5914 5914 5915 5916 5916 5917 5917 5918 5918 5919 5920 5920 5920 5920 5920 5920 5920 5921 5921 5922 5923 5923 5924 5925 5926 5928 5930 5931 5932 5933 5933 5934 5935 5936 5936 5937 5938 5938
5842 5847 5849 5850 5852 5856 5858 5859 5862 5866 5868 5871 5872 5874 5876 5877 5877 5877 5879 5880 5882 5882 5883 5884 5884 5885 5886 5888 5889 5890 5892 5894 5895 5896 5898 5899 5901 5903 5904 5906 5908 5909 5909 5910 5912 5913 5913 5914 5914 5915 5916 5916 5916 5917 5917 5918 5918 5920 5921 5921 5921 5921 5921 5921 5922 5922 5922 5923 5924 5925 5926 5927 5928 5930 5931 5933 5934 5935 5935 5936 5937 5937 5938 5939 5940 5941
5842 5844 5844 5845 5848 5852 5855 5857 5860 5864 5867 5869 5872 5874 5874 5875 5875 5876 5877 5879 5880 5881 5882 5883 5883 5884 5885 5887 5888 5889 5891 5893 5895 5896 5897 5898 5900 5901 5903 5905 5907 5908 5908 5909 5911 5913 5913 5914 5914 5915 5916 5916 5917 5917 5917 5918 5919 5920 5921 5921 5921 5921 5922 5922 5923 5923 5923 5924 5925 5926 5927 5929 5930 5931 5932 5934 5936 5937 5937 5938 5939 5939 5940 5941 5942 5942
5838 5838 5839 5842 5845 5848 5852 5854 5859 5863 5865 5868 5871 5872 5872 5873 5875 5876 5876 5878 5879 5880 5881 5881 5881 5883 5885 5885 5887 5888 5890 5892 5894 5895 5896 5898 5899 5900 5902 5904 5906 5907 5908 5909 5910 5912 5913 5914 5914 5915 5916 5916 5917 5917 5917 5918 5919 5920 5921 5922 5922 5922 5922 5923 5924 5924 5925 5925 5926 5927 5928 5929 5931 5932 5933 5935 5936 5938 5939 5940 5941 5941 5942 5942 5943 5944
5833 5834 5837 5840 5843 5846 5849 5852 5857 5861 5864 5867 5869 5870 5870 5872 5874 5876 5876 5877 5878 5879 5879 5879 5879 5881 5883 5884 5886 5887 5889 5891 5893 5894 5896 5897 5898 5899 5901 5903 5905 5906 5907 5909 5910 5912 5913 5913 5914 5915 5916 5916 5917 5917 5918 5919 5919 5920 5921 5922 5923 5923 5923 5924 5925 5926 5926 5927 5928 5929 5930 5931 5932 5933 5934 5936 5937 5939 5940 5941 5942 5943 5943 5944 5944 5945
5830 5832 5835 5838 5841 5844 5846 5851 5855 5858 5862 5866 5867 5868 5869 5871 5873 5874 5875 5876 5876 5877 5878 5877 5877 5878 5880 5883 5884 5885 5887 5889 5891 5893 5894 5896 5897 5898 5900 5902 5904 5906 5907 5908 5909 5911 5912 5913 5914 5915 5916 5916 5917 5918 5918 5919 5920 5920 5921 5922 5923 5924 5924 5924 5926 5927 5927 5928 5929 5930 5931 5932 5934 5935 5936 5936 5938 5939 5940 5941 5942 5943 5944 5945 5946 5946
5827 5830 5833 5836 5839 5842 5846 5851 5853 5856 5861 5864 5865 5866 5868 5869 5870 5871 5873 5874 5875 5876 5876 5876 5876 5877 5879 5881 5882 5882 5885 5887 5890 5892 5893 5895 5896 5897 5899 5901 5903 5905 5906 5907 5908 5910 5911 5913 5913 5915 5916 5916 5917 5918 5919 5919 5920 5921 5921 5922 5923 5924 5925 5925 5926 5928 5929 5929 5930 5931 5932 5933 5935 5936 5937 5938 5938 5939 5940 5941 5943 5944 5945 5946 5947 5948
5826 5828 5830 5832 5837 5842 5847 5851 5852 5854 5858 5860 5862 5864 5866 5867 5868 5869 5871 5873 5874 5874 5874 5874 5875 5876 5877 5878 5879 5880 5884 5887 5889 5891 5892 5893 5895 5896 5898 5900 5902 5904 5905 5906 5907 5909 5911 5912 5913 5914 5916 5916 5917 5918 5919 5920 5920 5921 5921 5922 5923 5924 5925 5926 5927 5928 5929 5930 5931 5932 5933 5934 5936 5937 5938 5939 5939 5940 5941 5942 5943 5944 5945 5946 5947 5948
5825 5827 5828 5831 5836 5841 5846 5848 5849 5852 5855 5857 5859 5862 5864 5865 5866 5868 5869 5871 5873 5873 5873 5874 5874 5875 5876 5876 5877 5881 5885 5887 5887 5888 5890 5892 5893 5895 5897 5898 5900 5903 5904 5905 5906 5907 5909 5911 5912 5914 5915 5917 5918 5919 5919 5920 5920 5921 5922 5922 5923 5924 5925 5926 5927 5928 5929 5931 5931 5932 5934 5935 5936 5937 5938 5939 5940 5941 5941 5942 5943 5944 5945 5946 5947 5948
5823 5825 5829 5833 5836 5839 5842 5844 5846 5849 5851 5854 5857 5860 5862 5863 5864 5866 5868 5869 5871 5872 5873 5873 5874 5874 5874 5875 5877 5880 5882 5883 5884 5886 5888 5890 5892 5893 5895 5897 5899 5902 5903 5904 5905 5906 5908 5911 5912 5914 5915 5917 5918 5918 5919 5920 5920 5921 5922 5923 5923 5924 5925 5926 5927 5928 5929 5931 5932 5933 5934 5936 5937 5938 5939 5940 5940 5941 5941 5942 5943 5944 5944 5945 5946 5947
5822 5825 5829 5832 5835 5837 5838 5840 5843 5846 5849 5851 5854 5857 5859 5861 5862 5864 5867 5868 5869 5871 5872 5873 5873 5873 5873 5874 5876 5878 5879 5880 5882 5884 5886 5887 5889 5891 5893 5895 5897 5900 5902 5902 5903 5905 5908 5910 5911 5913 5915 5916 5917 5918 5919 5919 5920 5921 5922 5923 5924 5924 5925 5926 5927 5928 5929 5931 5932 5933 5934 5936 5937 5939 5940 5941 5941 5942 5942 5942 5943 5943 5944 5944 5945 5946
5823 5826 5828 5830 5833 5834 5836 5838 5841 5844 5847 5850 5853 5856 5858 5859 5861 5864 5866 5867 5868 5869 5871 5872 5872 5872 5872 5873 5875 5876 5878 5879 5880 5882 5883 5885 5887 5889 5891 5894 5895 5898 5900 5901 5902 5904 5906 5908 5909 5911 5913 5914 5916 5917 5918 5919 5920 5921 5922 5923 5924 5924 5925 5926 5927 5928 5929 5931 5932 5934 5935 5936 5937 5939 5940 5941 5942 5943 5943 5944 5944 5944 5945 5945 5946 5946
5824 5827 5829 5830 5832 5834 5836 5839 5842 5845 5848 5851 5854 5855 5857 5859 5861 5864 5865 5866 5867 5868 5869 5871 5871 5871 5872 5873 5874 5875 5877 5878 5879 5881 5882 5884 5885 5886 5888 5891 5893 5896 5898 5900 5901 5903 5905 5906 5908 5910 5912 5913 5915 5916 5917 5918 5919 5920 5921 5923 5924 5924 5925 5926 5927 5928 5929 5930 5932 5933 5935 5936 5938 5939 5940 5941 5942 5944 5945 5946 5946 5946 5947 5947 5948 5948
5824 5827 5829 5831 5832 5835 5837 5839 5842 5845 5847 5850 5852 5852 5854 5857 5860 5862 5863 5865 5866 5867 5869 5870 5871 5871 5871 5872 5873 5874 5876 5878 5879 5880 5881 5883 5885 5885 5887 5889 5891 5894 5896 5898 5899 5901 5903 5905 5907 5908 5911 5913 5914 5915 5917 5918 5918 5920 5921 5922 5923 5924 5925 5926 5927 5928 5929 5930 5931 5933 5934 5936 5937 5939 5940 5941 5942 5944 5945 5946 5947 5948 5949 5949 5949 5950
5824 5826 5828 5830 5833 5835 5836 5838 5841 5844 5846 5849 5850 5850 5853 5856 5858 5860 5862 5863 5865 5867 5868 5869 5870 5871 5871 5872 5872 5874 5876 5877 5878 5879 5881 5882 5883 5885 5886 5888 5889 5892 5895 5897 5898 5900 5902 5904 5906 5907 5909 5912 5913 5914 5916 5917 5918 5919 5920 5921 5922 5923 5924 5925 5926 5927 5928 5929 5931 5932 5933 5935 5936 5938 5939 5940 5942 5943 5944 5945 5947 5948 5949 5949 5949 5950
5823 5826 5827 5829 5832 5833 5833 5836 5840 5842 5845 5847 5849 5851 5852 5854 5856 5858 5860 5862 5864 5865 5867 5868 5868 5870 5871 5872 5872 5873 5875 5876 5877 5878 5880 5881 5882 5884 5886 5887 5888 5890 5893 5895 5897 5898 5900 5902 5904 5905 5907 5910 5912 5913 5914 5916 5917 5918 5920 5921 5922 5923 5923 5924 5926 5927 5928 5929 5930 5931 5932 5934 5935 5936 5938 5939 5941 5942 5943 5944 5945 5946 5948 5948 5949 5949
5821 5824 5826 5829 5831 5832 5832 5835 5837 5840 5842 5845 5848 5850 5851 5853 5855 5857 5859 5860 5862 5864 5866 5866 5867 5869 5870 5871 5872 5873 5874 5875 5876 5877 5879 5880 5881 5883 5884 5885 5887 5889 5891 5893 5895 5896 5898 5900 5902 5903 5905 5908 5910 5911 5913 5915 5916 5918 5919 5920 5921 5922 5923 5924 5925 5926 5927 5928 5929 5930 5932 5933 5934 5935 5936 5938 5939 5940 5942 5943 5944 5945 5946 5947 5948 5948
5821 5823 5826 5829 5830 5831 5833 5835 5837 5838 5841 5843 5846 5848 5850 5852 5854 5856 5858 5859 5861 5863 5864 5865 5867 5869 5870 5870 5871 5872 5873 5874 5875 5877 5878 5879 5880 5881 5882 5884 5886 5888 5890 5892 5893 5895 5897 5899 5900 5901 5903 5905 5908 5910 5912 5913 5915 5916 5918 5919 5920 5921 5922 5924 5925 5926 5926 5927 5929 5930 5931 5932 5933 5934 5936 5937 5938 5939 5940 5941 5942 5944 5945 5946 5946 5947
5822 5824 5826 5828 5829 5831 5833 5834 5836 5838 5840 5843 5845 5847 5849 5851 5853 5856 5857 5859 5860 5862 5863 5865 5867 5868 5869 5870 5871 5872 5873 5874 5875 5876 5877 5878 5879 5879 5880 5882 5885 5887 5888 5890 5892 5894 5896 5899 5899 5899 5900 5903 5905 5907 5910 5912 5913 5915 5916 5918 5919 5920 5921 5922 5924 5925 5926 5927 5928 5929 5930 5931 5932 5933 5935 5936 5937 5938 5939 5940 5941 5942 5943 5943 5944 5944
5822 5823 5825 5826 5828 5830 5832 5834 5837 5837 5839 5842 5845 5847 5849 5850 5853 5855 5857 5858 5859 5861 5862 5864 5866 5868 5869 5869 5870 5871 5872 5873 5873 5874 5875 5876 5877 5878 5879 5881 5883 5884 5886 5888 5890 5892 5894 5897 5899 5899 5900 5901 5903 5905 5908 5910 5911 5913 5915 5916 5918 5919 5920 5922 5923 5924 5925 5926 5927 5928 5929 5931 5932 5933 5934 5935 5936 5937 5938 5939 5940 5940 5941 5941 5942 5943
5821 5822 5824 5826 5828 5830 5832 5834 5836 5836 5838 5841 5843 5845 5847 5849 5852 5854 5856 5858 5858 5859 5861 5863 5865 5867 5868 5869 5870 5870 5871 5872 5872 5873 5874 5874 5875 5876 5877 5879 5880 5882 5883 5885 5887 5890 5892 5894 5897 5898 5899 5900 5902 5903 5905 5907 5910 5911 5913 5915 5917 5918 5919 5920 5922 5923 5924 5925 5926 5927 5929 5930 5931 5932 5933 5934 5935 5936 5937 5937 5937 5939 5940 5941 5943 5943
5821 5822 5823 5825 5827 5829 5831 5833 5833 5834 5836 5838 5839 5841 5844 5847 5850 5853 5855 5856 5857 5858 5859 5861 5864 5866 5867 5868 5869 5869 5870 5871 5871 5871 5872 5872 5873 5874 5875 5877 5878 5879 5881 5882 5884 5887 5889 5892 5894 5896 5897 5898 5899 5901 5904 5905 5907 5909 5911 5913 5915 5916 5918 5919 5921 5922 5923 5924 5925 5927 5928 5929 5930 5932 5933 5934 5935 5935 5936 5936 5936 5939 5941 5941 5942 5941
5820 5821 5822 5823 5826 5828 5829 5830 5831 5833 5834 5835 5837 5839 5842 5845 5848 5850 5852 5853 5855 5857 5858 5860 5862 5864 5866 5867 5868 5869 5869 5870 5870 5870 5870 5871 5871 5872 5873 5874 5875 5876 5878 5880 5882 5885 5887 5889 5892 5894 5895 5896 5897 5900 5903 5905 5905 5906 5909 5911 5913 5914 5916 5918 5919 5921 5922 5923 5924 5926 5927 5928 5929 5931 5932 5933 5934 5935 5935 5935 5937 5939 5940 5940 5940 5940
5817 5818 5820 5821 5823 5824 5826 5828 5830 5831 5833 5835 5836 5839 5842 5845 5847 5849 5850 5852 5854 5856 5857 5859 5861 5863 5865 5866 5867 5868 5868 5869 5870 5870 5869 5870 5870 5871 5872 5872 5873 5873 5875 5878 5880 5883 5886 5888 5890 5891 5893 5895 5897 5899 5901 5903 5905 5906 5906 5908 5910 5912 5914 5915 5917 5918 5920 5921 5923 5924 5926 5927 5928 5929 5931 5932 5933 5933 5934 5935 5937 5938 5938 5939 5940 5940
5815 5816 5817 5818 5819 5821 5824 5827 5829 5830 5832 5834 5837 5839 5842 5844 5846 5847 5849 5851 5853 5854 5856 5857 5859 5861 5863 5864 5865 5867 5868 5868 5869 5869 5869 5869 5869 5870 5870 5871 5871 5872 5874 5876 5878 5881 5883 5885 5887 5889 5891 5894 5897 5898 5899 5900 5903 5904 5905 5906 5907 5909 5911 5913 5914 5916 5918 5919 5921 5923 5924 5926 5927 5928 5929 5930 5931 5932 5933 5934 5935 5936 5937 5938 5939 5939
5813 5814 5814 5815 5818 5821 5824 5827 5829 5830 5831 5833 5836 5839 5841 5842 5844 5846 5848 5850 5851 5853 5855 5857 5858 5860 5861 5862 5864 5866 5867 5868 5869 5869 5869 5869 5869 5869 5869 5870 5871 5872 5873 5875 5878 5880 5882 5883 5886 5888 5890 5892 5894 5896 5897 5898 5900 5902 5903 5904 5905 5906 5908 5910 5912 5914 5916 5917 5919 5921 5922 5923 5925 5926 5927 5928 5929 5930 5931 5932 5933 5933 5934 5935 5936 5937
5812 5813 5813 5815 5817 5821 5824 5827 5828 5829 5830 5832 5835 5837 5839 5841 5843 5844 5846 5848 5849 5852 5854 5855 5857 5858 5859 5861 5863 5865 5866 5867 5868 5868 5869 5869 5868 5868 5868 5869 5870 5871 5873 5874 5876 5878 5880 5882 5884 5886 5888 5889 5892 5894 5895 5897 5898 5899 5901 5903 5904 5905 5905 5907 5909 5911 5913 5915 5917 5918 5919 5921 5922 5923 5924 5926 5927 5928 5929 5930 5930 5931 5932 5932 5933 5934
5812 5812 5813 5815 5817 5819 5822 5825 5827 5828 5829 5831 5833 5835 5837 5839 5841 5842 5844 5846 5848 5850 5852 5854 5855 5856 5857 5859 5862 5863 5864 5866 5867 5868 5868 5868 5868 5868 5868 5868 5869 5870 5872 5873 5875 5877 5878 5879 5881 5883 5884 5886 5889 5891 5893 5895 5896 5897 5899 5901 5903 5904 5904 5904 5907 5909 5910 5912 5913 5914 5916 5917 5919 5921 5922 5923 5925 5926 5928 5928 5928 5929 5930 5930 5931 5931
5812 5812 5813 5815 5817 5818 5820 5823 5825 5827 5828 5829 5831 5834 5836 5838 5839 5841 5842 5844 5847 5848 5850 5852 5853 5854 5855 5857 5859 5860 5862 5864 5865 5866 5867 5867 5868 5867 5867 5868 5869 5870 5871 5872 5874 5875 5877 5877 5878 5879 5881 5882 5885 5888 5890 5892 5894 5895 5897 5898 5900 5902 5902 5902 5904 5907 5908 5909 5910 5912 5914 5915 5916 5918 5919 5921 5922 5924 5925 5925 5926 5927 5928 5928 5929 5929
5811 5811 5811 5814 5816 5817 5818 5820 5823 5824 5826 5827 5829 5832 5834 5836 5837 5839 5841 5843 5845 5846 5848 5849 5851 5852 5853 5855 5857 5858 5860 5861 5863 5864 5865 5866 5867 5867 5867 5867 5868 5870 5871 5872 5873 5874 5875 5876 5876 5877 5878 5879 5881 5884 5887 5890 5891 5893 5894 5895 5896 5899 5900 5901 5903 5905 5905 5906 5908 5909 5911 5913 5915 5915 5917 5918 5920 5922 5923 5923 5924 5924 5926 5927 5927 5928
5809 5809 5809 5812 5814 5816 5817 5818 5820 5822 5824 5825 5827 5829 5832 5834 5836 5838 5839 5841 5843 5845 5846 5847 5849 5850 5852 5853 5855 5857 5858 5860 5861 5862 5863 5864 5865 5866 5866 5867 5868 5869 5870 5871 5872 5872 5873 5873 5874 5875 5876 5876 5878 5881 5884 5886 5888 5889 5890 5892 5894 5896 5898 5899 5901 5901 5902 5903 5905 5906 5907 5909 5911 5913 5914 5915 5916 5918 5919 5921 5921 5922 5923 5924 5925 5926
5808 5808 5808 5810 5812 5814 5815 5816 5818 5820 5822 5824 5826 5828 5829 5832 5834 5836 5837 5839 5840 5843 5844 5846 5847 5848 5849 5851 5852 5854 5856 5858 5859 5860 5861 5862 5863 5864 5865 5866 5867 5868 5868 5869 5870 5871 5872 5872 5873 5874 5875 5875 5877 5879 5881 5882 5884 5886 5887 5889 5891 5893 5895 5897 5898 5898 5898 5900 5902 5903 5904 5906 5908 5910 5911 5912 5913 5914 5916 5917 5918 5919 5920 5921 5922 5923
5807 5808 5808 5808 5810 5811 5813 5814 5816 5818 5821 5822 5824 5826 5828 5830 5832 5833 5835 5836 5838 5840 5842 5843 5844 5845 5847 5848 5850 5852 5854 5855 5856 5857 5858 5860 5861 5862 5863 5864 5865 5866 5866 5867 5868 5869 5870 5871 5872 5873 5874 5875 5876 5877 5878 5879 5881 5883 5885 5886 5888 5889 5892 5894 5895 5895 5896 5897 5899 5900 5902 5903 5905 5907 5908 5909 5910 5912 5913 5914 5915 5916 5917 5918 5918 5920
5806 5806 5807 5807 5808 5808 5810 5812 5815 5816 5819 5821 5822 5824 5825 5827 5829 5831 5833 5835 5836 5837 5838 5840 5841 5843 5844 5845 5847 5848 5850 5852 5853 5854 5855 5856 5858 5860 5861 5862 5863 5864 5864 5865 5867 5867 5867 5868 5870 5871 5872 5873 5875 5876 5877 5878 5880 5880 5881 5883 5885 5887 5889 5891 5892 5892 5892 5894 5896 5897 5899 5901 5903 5904 5906 5906 5907 5909 5910 5910 5911 5912 5913 5914 5915 5916
5804 5805 5805 5805 5806 5807 5808 5810 5813 5815 5817 5819 5821 5822 5823 5825 5827 5828 5831 5833 5834 5835 5837 5838 5839 5841 5842 5843 5844 5845 5847 5849 5850 5851 5852 5854 5855 5857 5859 5860 5861 5861 5861 5862 5865 5865 5865 5867 5869 5869 5870 5871 5873 5874 5876 5877 5877 5877 5878 5880 5883 5885 5886 5888 5889 5889 5890 5891 5892 5894 5896 5898 5900 5902 5903 5904 5904 5905 5906 5906 5907 5909 5910 5911 5911 5912
5802 5803 5804 5804 5805 5806 5806 5808 5810 5813 5815 5817 5819 5820 5822 5823 5825 5826 5828 5830 5832 5834 5835 5836 5837 5839 5840 5841 5843 5845 5846 5846 5847 5848 5849 5850 5852 5854 5855 5856 5857 5858 5858 5859 5862 5862 5863 5865 5867 5867 5867 5869 5870 5871 5873 5874 5875 5875 5876 5878 5880 5882 5884 5885 5886 5887 5888 5888 5889 5891 5893 5895 5897 5899 5900 5900 5900 5901 5902 5903 5904 5905 5906 5908 5908 5908
5799 5801 5802 5803 5803 5804 5805 5806 5807 5810 5812 5814 5816 5818 5820 5821 5822 5824 5826 5827 5829 5831 5833 5834 5836 5837 5838 5840 5841 5843 5844 5845 5845 5846 5847 5848 5849 5850 5852 5853 5854 5855 5856 5857 5859 5859 5860 5863 5865 5865 5865 5867 5869 5871 5872 5873 5874 5874 5875 5876 5877 5879 5881 5883 5883 5883 5883 5884 5885 5887 5889 5891 5893 5895 5896 5896 5897 5898 5899 5899 5900 5901 5903 5904 5904 5905
5796 5798 5799 5801 5801 5802 5803 5804 5805 5807 5809 5811 5812 5815 5817 5819 5821 5822 5823 5825 5827 5829 5830 5831 5833 5835 5836 5838 5840 5841 5842 5843 5845 5846 5847 5849 5849 5850 5851 5852 5853 5853 5854 5854 5856 5857 5858 5860 5862 5863 5863 5865 5867 5869 5870 5871 5872 5873 5874 5874 5875 5876 5878 5879 5880 5880 5880 5881 5882 5884 5885 5887 5889 5891 5892 5893 5894 5894 5895 5895 5896 5897 5898 5899 5900 5901
5794 5795 5797 5798 5799 5800 5801 5801 5802 5803 5805 5807 5809 5811 5814 5817 5819 5820 5821 5822 5824 5826 5827 5828 5831 5833 5835 5836 5838 5839 5840 5842 5843 5844 5846 5847 5848 5849 5850 5851 5852 5852 5852 5852 5853 5854 5856 5858 5859 5860 5861 5863 5865 5866 5868 5870 5871 5872 5872 5873 5873 5874 5875 5876 5876 5877 5877 5879 5880 5881 5882 5884 5885 5887 5888 5889 5890 5891 5892 5892 5892 5893 5893 5893 5894 5895
5791 5792 5794 5796 5797 5798 5799 5799 5800 5801 5802 5803 5805 5808 5811 5814 5816 5817 5819 5820 5821 5823 5824 5826 5828 5830 5833 5835 5836 5837 5838 5840 5841 5842 5843 5844 5846 5847 5848 5849 5849 5850 5850 5851 5852 5852 5853 5855 5857 5858 5859 5861 5862 5864 5866 5867 5869 5870 5871 5871 5872 5872 5872 5872 5874 5875 5876 5877 5878 5879 5879 5880 5882 5883 5884 5886 5888 5888 5888 5888 5888 5889 5888 5888 5888 5889
5789 5790 5792 5793 5794 5796 5796 5797 5798 5798 5799 5801 5802 5804 5807 5810 5812 5814 5816 5817 5819 5820 5821 5823 5826 5828 5830 5832 5833 5835 5836 5837 5838 5839 5840 5842 5843 5844 5845 5846 5847 5847 5848 5849 5849 5850 5851 5852 5854 5856 5857 5858 5860 5861 5863 5865 5866 5868 5868 5869 5870 5870 5869 5869 5872 5873 5873 5874 5876 5876 5876 5878 5879 5880 5881 5884 5885 5884 5884 5884 5885 5885 5884 5884 5884 5886
5787 5788 5789 5790 5792 5793 5794 5795 5796 5796 5797 5798 5799 5800 5803 5806 5809 5811 5812 5814 5816 5817 5818 5820 5822 5825 5827 5828 5830 5831 5833 5834 5835 5836 5837 5838 5839 5840 5842 5843 5844 5845 5845 5846 5847 5848 5848 5849 5851 5852 5854 5856 5857 5859 5860 5862 5863 5864 5864 5866 5868 5868 5867 5867 5869 5870 5871 5871 5872 5873 5874 5875 5877 5877 5878 5881 5881 5879 5879 5881 5882 5882 5882 5881 5882 5884
5784 5785 5786 5788 5789 5791 5792 5793 5794 5795 5795 5796 5796 5797 5799 5802 5804 5807 5808 5810 5812 5813 5815 5816 5818 5821 5823 5825 5826 5828 5829 5831 5832 5833 5834 5834 5835 5837 5838 5839 5841 5842 5843 5844 5844 5845 5846 5847 5848 5849 5851 5852 5854 5856 5857 5859 5860 5861 5861 5862 5864 5865 5865 5865 5866 5867 5868 5869 5869 5870 5871 5872 5874 5874 5875 5876 5876 5875 5876 5877 5878 5879 5879 5879 5879 5880
5782 5783 5784 5785 5787 5788 5790 5791 5792 5793 5793 5794 5794 5796 5797 5799 5801 5803 5805 5807 5808 5810 5812 5813 5815 5817 5819 5821 5823 5824 5826 5827 5829 5829 5829 5830 5832 5833 5834 5835 5837 5839 5840 5841 5842 5843 5843 5844 5846 5847 5848 5849 5851 5852 5854 5855 5856 5857 5858 5859 5860 5861 5862 5862 5863 5864 5866 5866 5867 5867 5868 5869 5870 5871 5871 5871 5871 5872 5872 5873 5874 5875 5875 5875 5875 5876
5780 5780 5782 5783 5785 5787 5788 5789 5790 5791 5791 5792 5793 5794 5795 5797 5799 5801 5803 5804 5806 5807 5809 5810 5812 5813 5816 5818 5819 5820 5822 5824 5825 5825 5825 5826 5828 5830 5831 5832 5833 5835 5836 5838 5839 5839 5840 5841 5843 5844 5846 5847 5848 5849 5850 5851 5852 5853 5854 5855 5856 5857 5858 5859 5860 5861 5862 5863 5863 5864 5864 5865 5866 5866 5867 5867 5868 5868 5869 5869 5870 5870 5870 5871 5871 5871
5778 5779 5780 5781 5783 5785 5786 5788 5788 5789 5789 5790 5791 5792 5793 5795 5797 5798 5800 5802 5803 5805 5806 5808 5809 5810 5812 5814 5816 5817 5819 5820 5821 5822 5823 5824 5825 5827 5828 5828 5829 5832 5833 5834 5835 5836 5837 5838 5839 5841 5842 5844 5845 5846 5847 5848 5848 5849 5850 5851 5852 5853 5854 5855 5856 5857 5858 5858 5859 5859 5860 5860 5861 5862 5863 5864 5864 5865 5865 5865 5865 5866 5866 5866 5867 5867
5778 5778 5779 5780 5782 5783 5784 5785 5786 5787 5787 5788 5789 5790 5791 5793 5794 5796 5798 5799 5801 5803 5804 5805 5806 5808 5810 5811 5813 5814 5816 5817 5818 5819 5821 5821 5822 5823 5824 5825 5827 5828 5830 5830 5831 5832 5833 5834 5836 5837 5839 5840 5841 5843 5843 5844 5845 5846 5847 5847 5848 5849 5850 5851 5852 5853 5854 5854 5855 5855 5855 5855 5856 5856 5858 5859 5859 5860 5860 5861 5861 5861 5862 5862 5863 5863
5777 5778 5779 5780 5781 5782 5783 5784 5784 5785 5785 5786 5787 5788 5789 5790 5792 5793 5795 5797 5798 5800 5801 5802 5804 5806 5807 5808 5810 5811 5813 5814 5816 5817 5817 5818 5819 5820 5822 5823 5825 5826 5827 5827 5828 5829 5830 5831 5832 5834 5835 5837 5838 5839 5839 5840 5841 5842 5843 5843 5844 5845 5845 5846 5847 5848 5849 5850 5851 5852 5852 5851 5851 5851 5852 5853 5854 5855 5855 5856 5856 5857 5857 5858 5858 5859
5777 5778 5778 5779 5780 5780 5781 5782 5782 5783 5783 5784 5785 5786 5786 5788 5789 5791 5792 5794 5795 5797 5798 5799 5801 5803 5804 5806 5807 5808 5810 5811 5813 5814 5814 5815 5816 5817 5819 5821 5822 5823 5824 5825 5825 5826 5827 5827 5829 5830 5831 5832 5834 5835 5835 5836 5837 5837 5838 5838 5839 5840 5840 5841 5842 5843 5844 5845 5847 5848 5848 5847 5847 5847 5848 5848 5849 5850 5850 5851 5852 5852 5853 5853 5854 5855